Weather History for Devils Lake, ND

Change the Weather History Date:

Sunday, March 2, 2014

  Actual Average Record
Temperature  
Mean Temperature -10 °F -  
Max Temperature 0 °F 27 °F 51 °F (1992)
Min Temperature -20 °F 8 °F -28 °F (1972)
Degree Days  
Heating Degree Days 75    
Moisture  
Dew Point -20 °F    
Average Humidity 54    
Maximum Humidity 65    
Minimum Humidity 49    
Precipitation  
Precipitation 0.00 in - - ()
Sea Level Pressure  
Sea Level Pressure 30.43 in    
Wind  
Wind Speed 15 mph (WNW)    
Max Wind Speed 20 mph    
Max Gust Speed 24 mph    
Visibility 10 miles    
Events      
Averages and records for this station are not official NWS values.
T = Trace of Precipitation, MM = Missing Value Source: NWS Daily Summary

Daily Weather History Graph

Daily Weather History Graph

Search for Another Location

Airport:

Trip Planner

Search our weather history database for the weather conditions in past years. The results will help you decide how hot, cold, wet, or windy it might be!

Date:

Astronomy

Mar. 02, 2014 Rise Set
Actual Time 7:14 AM CST 6:21 PM CST
Civil Twilight 6:43 AM CST 6:52 PM CST
Nautical Twilight 6:07 AM CST 7:28 PM CST
Astronomical Twilight 5:31 AM CST 8:05 PM CST
Moon 7:37 AM CST (3/2) 8:31 PM CST (3/2)
Length of Visible Light 12h 09m
Length of Day
11h 06m
Waxing Crescent, 3% of the Moon is Illuminated
Mar 2
Waxing Crescent
Mar 8
First Quarter
Mar 16
Full
Mar 23
Last Quarter
Mar 30
New

Hourly Weather History & Observations

Time (CST) Temp. Windchill Dew Point Humidity Pressure Visibility Wind Dir Wind Speed Gust Speed Precip Events Conditions
12:15 AM -18.4 °F -43.7 °F - N/A% 30.44 in 10.0 mi WNW 16.1 mph - N/A   Clear
12:35 AM -18.4 °F -44.5 °F - N/A% 30.44 in 10.0 mi WNW 17.3 mph - N/A   Clear
12:55 AM -18.4 °F -45.2 °F - N/A% 30.44 in 10.0 mi WNW 18.4 mph - N/A   Clear
1:15 AM -18.4 °F -45.2 °F - N/A% 30.43 in 10.0 mi WNW 18.4 mph - N/A   Clear
1:35 AM -18.4 °F -45.2 °F - N/A% 30.44 in 10.0 mi WNW 18.4 mph 24.2 mph N/A   Clear
1:55 AM -18.4 °F -44.5 °F - N/A% 30.43 in 10.0 mi WNW 17.3 mph - N/A   Clear
2:15 AM -18.4 °F -45.2 °F - N/A% 30.44 in 10.0 mi WNW 18.4 mph - N/A   Clear
2:35 AM -18.4 °F -44.5 °F - N/A% 30.44 in 10.0 mi WNW 17.3 mph - N/A   Clear
2:55 AM -18.4 °F -43.7 °F - N/A% 30.44 in 10.0 mi WNW 16.1 mph - N/A   Clear
3:15 AM -18.4 °F -45.2 °F - N/A% 30.42 in 10.0 mi WNW 18.4 mph - N/A   Clear
3:35 AM -18.4 °F -44.5 °F - N/A% 30.42 in 10.0 mi WNW 17.3 mph - N/A   Clear
3:55 AM -20.2 °F -47.5 °F - N/A% 30.42 in 10.0 mi West 18.4 mph - N/A   Clear
4:15 AM -18.4 °F -42.9 °F - N/A% 30.42 in 10.0 mi West 15.0 mph - N/A   Clear
4:35 AM -20.2 °F -45.2 °F - N/A% 30.42 in 10.0 mi West 15.0 mph - N/A   Clear
4:55 AM -20.2 °F -46.0 °F - N/A% 30.41 in 10.0 mi West 16.1 mph - N/A   Clear
5:15 AM -20.2 °F -46.8 °F - N/A% 30.41 in 10.0 mi West 17.3 mph - N/A   Clear
5:35 AM -20.2 °F -44.4 °F - N/A% 30.42 in 10.0 mi WNW 13.8 mph - N/A   Clear
5:55 AM -20.2 °F -46.0 °F - N/A% 30.42 in 10.0 mi WNW 16.1 mph - N/A   Clear
6:15 AM -20.2 °F -46.0 °F - N/A% 30.42 in 10.0 mi WNW 16.1 mph - N/A   Clear
6:35 AM -20.2 °F -45.2 °F - N/A% 30.42 in 10.0 mi WNW 15.0 mph - N/A   Clear
6:55 AM -20.2 °F -46.0 °F - N/A% 30.42 in 10.0 mi West 16.1 mph - N/A   Clear
7:15 AM -20.2 °F -46.0 °F - N/A% 30.42 in 10.0 mi WNW 16.1 mph - N/A   Clear
7:35 AM -20.2 °F -45.2 °F - N/A% 30.42 in 10.0 mi WNW 15.0 mph - N/A   Clear
7:55 AM -20.2 °F -45.2 °F - N/A% 30.42 in 10.0 mi WNW 15.0 mph - N/A   Clear
8:15 AM -18.4 °F -41.2 °F - N/A% 30.43 in 10.0 mi WNW 12.7 mph - N/A   Clear
8:35 AM -18.4 °F -42.1 °F - N/A% 30.43 in 10.0 mi West 13.8 mph - N/A   Clear
8:55 AM -18.4 °F -43.7 °F - N/A% 30.44 in 10.0 mi WNW 16.1 mph - N/A   Clear
9:15 AM -16.6 °F -42.1 °F -29.2 °F 53% 30.45 in 10.0 mi WNW 17.3 mph - N/A   Clear
9:35 AM -16.6 °F -40.6 °F -27.4 °F 58% 30.45 in 10.0 mi WNW 15.0 mph - N/A   Clear
9:55 AM -14.8 °F -37.5 °F -27.4 °F 53% 30.45 in 10.0 mi West 13.8 mph - N/A   Clear
10:15 AM -14.8 °F -37.5 °F -27.4 °F 53% 30.45 in 10.0 mi West 13.8 mph - N/A   Clear
10:35 AM -13.0 °F -35.2 °F -25.6 °F 53% 30.46 in 10.0 mi West 13.8 mph - N/A   Clear
10:55 AM -11.2 °F -32.1 °F -25.6 °F 49% 30.46 in 10.0 mi West 12.7 mph - N/A   Clear
11:15 AM -11.2 °F -32.9 °F -23.8 °F 54% 30.46 in 10.0 mi WNW 13.8 mph - N/A   Clear
11:35 AM -9.4 °F -31.4 °F -23.8 °F 49% 30.46 in 10.0 mi WNW 15.0 mph - N/A   Clear
11:55 AM -7.6 °F -29.8 °F -20.2 °F 54% 30.46 in 10.0 mi WNW 16.1 mph - N/A   Clear
12:15 PM -7.6 °F -29.8 °F -20.2 °F 54% 30.46 in 10.0 mi West 16.1 mph - N/A   Clear
12:35 PM -7.6 °F -29.8 °F -20.2 °F 54% 30.46 in 10.0 mi WNW 16.1 mph - N/A   Clear
12:55 PM -5.8 °F -29.4 °F -18.4 °F 55% 30.45 in 10.0 mi WNW 19.6 mph - N/A   Clear
1:15 PM -5.8 °F -27.5 °F -18.4 °F 55% 30.45 in 10.0 mi WNW 16.1 mph - N/A   Clear
1:35 PM -4.0 °F -27.0 °F -18.4 °F 50% 30.44 in 10.0 mi WNW 19.6 mph - N/A   Clear
1:55 PM -4.0 °F -25.8 °F -16.6 °F 55% 30.43 in 10.0 mi WNW 17.3 mph - N/A   Clear
2:15 PM -4.0 °F -25.8 °F -16.6 °F 55% 30.43 in 10.0 mi WNW 17.3 mph - N/A   Clear
2:35 PM -2.2 °F -20.7 °F -16.6 °F 50% 30.44 in 10.0 mi WNW 12.7 mph - N/A   Clear
2:55 PM -2.2 °F -22.9 °F -16.6 °F 50% 30.44 in 10.0 mi WNW 16.1 mph - N/A   Clear
3:15 PM -0.4 °F -19.2 °F -14.8 °F 51% 30.44 in 10.0 mi WNW 13.8 mph - N/A   Clear
3:35 PM -0.4 °F -17.6 °F -14.8 °F 51% 30.44 in 10.0 mi WNW 11.5 mph - N/A   Clear
3:55 PM -0.4 °F -19.2 °F -14.8 °F 51% 30.44 in 10.0 mi West 13.8 mph - N/A   Clear
4:15 PM -0.4 °F -19.9 °F -14.8 °F 51% 30.44 in 10.0 mi West 15.0 mph - N/A   Clear
4:35 PM -2.2 °F -22.2 °F -14.8 °F 55% 30.43 in 10.0 mi West 15.0 mph - N/A   Clear
4:55 PM -2.2 °F -20.7 °F -16.6 °F 50% 30.43 in 10.0 mi WNW 12.7 mph - N/A   Clear
5:15 PM -2.2 °F -18.0 °F -16.6 °F 50% 30.42 in 10.0 mi WNW 9.2 mph - N/A   Clear
5:35 PM -2.2 °F -16.8 °F -16.6 °F 50% 30.42 in 10.0 mi WNW 8.1 mph - N/A   Clear
5:55 PM -2.2 °F -15.6 °F -16.6 °F 50% 30.43 in 10.0 mi WNW 6.9 mph - N/A   Clear
6:15 PM -2.2 °F -18.9 °F -16.6 °F 50% 30.43 in 10.0 mi WNW 10.4 mph - N/A   Clear
6:35 PM -5.8 °F -22.4 °F -18.4 °F 55% 30.43 in 10.0 mi WNW 9.2 mph - N/A   Clear
6:55 PM -5.8 °F -19.9 °F -20.2 °F 50% 30.43 in 10.0 mi WNW 6.9 mph - N/A   Clear
7:15 PM -5.8 °F -18.4 °F -18.4 °F 55% 30.43 in 10.0 mi West 5.8 mph - N/A   Clear
7:35 PM -7.6 °F -20.6 °F -20.2 °F 54% 30.43 in 10.0 mi WNW 5.8 mph - N/A   Clear
7:55 PM -9.4 °F -20.9 °F -20.2 °F 59% 30.43 in 10.0 mi WNW 4.6 mph - N/A   Clear
8:15 PM -9.4 °F -20.9 °F -20.2 °F 59% 30.42 in 10.0 mi WNW 4.6 mph - N/A   Clear
8:35 PM -9.4 °F -18.6 °F -18.4 °F 65% 30.41 in 10.0 mi West 3.5 mph - N/A   Clear
8:55 PM -9.4 °F -22.7 °F -20.2 °F 59% 30.41 in 10.0 mi West 5.8 mph - N/A   Clear
9:15 PM -9.4 °F -24.3 °F -20.2 °F 59% 30.41 in 10.0 mi West 6.9 mph - N/A   Clear
9:35 PM -9.4 °F -20.9 °F -22.0 °F 54% 30.40 in 10.0 mi WNW 4.6 mph - N/A   Clear
9:55 PM -9.4 °F -18.6 °F -18.4 °F 65% 30.40 in 10.0 mi WSW 3.5 mph - N/A   Clear
10:15 PM -9.4 °F - -20.2 °F 59% 30.39 in 10.0 mi Calm Calm - N/A   Clear
10:35 PM -9.4 °F -25.6 °F -22.0 °F 54% 30.39 in 10.0 mi WSW 8.1 mph - N/A   Clear
10:55 PM -9.4 °F -20.9 °F -20.2 °F 59% 30.39 in 10.0 mi WSW 4.6 mph - N/A   Clear
11:15 PM -9.4 °F -22.7 °F -20.2 °F 59% 30.39 in 10.0 mi WSW 5.8 mph - N/A   Clear
11:35 PM -9.4 °F -20.9 °F -20.2 °F 59% 30.39 in 10.0 mi WSW 4.6 mph - N/A   Clear
11:55 PM -9.4 °F -22.7 °F -20.2 °F 59% 30.38 in 10.0 mi WSW 5.8 mph - N/A   Clear